Crestview, FL

7:25 PM CDT on October 23, 2017 (GMT -0500)
Sikes

Weather History for KCEW - February, 2013

Change the Weather History Date:

Sunday, February 3, 2013

  Actual Average Record
Temperature  
Mean Temperature 52 °F -  
Max Temperature 66 °F 61 °F 78 °F (1990)
Min Temperature 36 °F 39 °F 10 °F (1951)
Degree Days  
Heating Degree Days 14    
Growing Degree Days 2 (Base 50)    
Moisture  
Dew Point 38 °F    
Average Humidity 73    
Maximum Humidity 100    
Minimum Humidity 22    
Precipitation  
Precipitation 0.01 in - - ()
Sea Level Pressure  
Sea Level Pressure 30.19 in    
Wind  
Wind Speed 4 mph (NW)    
Max Wind Speed 13 mph    
Max Gust Speed 20 mph    
Visibility 8 miles    
Events Rain    
Averages and records for this station are not official NWS values.
T = Trace of Precipitation, MM = Missing Value Source: NWS Daily Summary

Daily Weather History Graph

Daily Weather History Graph

Search for Another Location

Airport or City:

Trip Planner

Search our weather history database for the weather conditions in past years. The results will help you decide how hot, cold, wet, or windy it might be!

Date:

Astronomy

Feb. 03, 2013 Rise Set
Actual Time 6:36 AM CST 5:24 PM CST
Civil Twilight 6:11 AM CST 5:49 PM CST
Nautical Twilight 5:42 AM CST 6:18 PM CST
Astronomical Twilight 5:13 AM CST 6:46 PM CST
Moon 12:02 AM CST (2/3) 11:03 AM CST (2/3)
Length of Visible Light 11h 38m
Length of Day
10h 47m
Waning Gibbous, 48% of the Moon is Illuminated
Feb 3
Waning Gibbous
Feb 10
New
Feb 17
First Quarter
Feb 25
Full
Mar 4
Last Quarter

Hourly Weather History & Observations

Time (CST) Temp. Windchill Dew Point Humidity Pressure Visibility Wind Dir Wind Speed Gust Speed Precip Events Conditions
12:53 AM 53.1 °F - 48.9 °F 86% 30.19 in 10.0 mi West 4.6 mph - N/A   Mostly Cloudy
1:53 AM 50.0 °F - 48.0 °F 93% 30.20 in 10.0 mi NW 5.8 mph - 0.00 in   Overcast
2:18 AM 51.8 °F - 48.2 °F 88% 30.21 in 6.0 mi NW 6.9 mph - 0.01 in Rain Light Rain
2:53 AM 51.1 °F - 48.9 °F 92% 30.21 in 10.0 mi NW 4.6 mph - 0.01 in   Overcast
3:17 AM 50.0 °F - 48.2 °F 94% 30.20 in 10.0 mi North 3.5 mph - N/A   Scattered Clouds
3:53 AM 48.0 °F - 46.0 °F 93% 30.21 in 10.0 mi Calm Calm - N/A   Clear
4:53 AM 45.0 °F - 43.0 °F 93% 30.21 in 6.0 mi Calm Calm - N/A   Clear
5:37 AM 42.8 °F - 39.2 °F 87% 30.22 in 1.8 mi Calm Calm - N/A   Partly Cloudy
5:53 AM 41.0 °F - 39.9 °F 96% 30.23 in 2.0 mi Calm Calm - N/A   Partly Cloudy
5:59 AM 41.0 °F - 39.2 °F 93% 30.23 in 0.8 mi Calm Calm - N/A   Clear
6:08 AM 41.0 °F - 41.0 °F 100% 30.23 in 2.0 mi Calm Calm - N/A   Clear
6:32 AM 39.2 °F 37.0 °F 37.4 °F 93% 30.23 in 1.8 mi North 3.5 mph - N/A   Clear
6:35 AM 41.0 °F 39.0 °F 39.2 °F 93% 30.23 in 3.0 mi North 3.5 mph - N/A   Clear
6:53 AM 39.0 °F - 39.0 °F 100% 30.24 in 6.0 mi Calm Calm - N/A   Clear
7:53 AM 46.9 °F - 45.0 °F 93% 30.26 in 10.0 mi NNE 3.5 mph - N/A   Clear
8:53 AM 53.1 °F - 45.0 °F 74% 30.26 in 10.0 mi Calm Calm - N/A   Clear
9:53 AM 57.0 °F - 35.1 °F 44% 30.25 in 10.0 mi Variable 4.6 mph - N/A   Clear
10:53 AM 61.0 °F - 34.0 °F 36% 30.24 in 10.0 mi NNW 9.2 mph - N/A   Clear
11:53 AM 63.0 °F - 33.1 °F 33% 30.21 in 10.0 mi WNW 6.9 mph - N/A   Clear
12:53 PM 64.0 °F - 33.1 °F 31% 30.16 in 10.0 mi Variable 6.9 mph - N/A   Overcast
1:53 PM 66.9 °F - 27.0 °F 22% 30.14 in 10.0 mi WNW 10.4 mph 18.4 mph 0.00 in   Clear
2:53 PM 66.9 °F - 28.0 °F 23% 30.13 in 10.0 mi WNW 12.7 mph 19.6 mph N/A   Clear
3:53 PM 66.0 °F - 27.0 °F 23% 30.12 in 10.0 mi West 10.4 mph - N/A   Clear
4:53 PM 64.0 °F - 28.9 °F 27% 30.13 in 10.0 mi WNW 8.1 mph - N/A   Clear
5:53 PM 53.1 °F - 34.0 °F 48% 30.13 in 10.0 mi West 3.5 mph - N/A   Clear
6:53 PM 46.9 °F - 37.0 °F 68% 30.14 in 10.0 mi Calm Calm - N/A   Clear
7:53 PM 42.1 °F - 36.0 °F 79% 30.14 in 10.0 mi Calm Calm - N/A   Clear
8:53 PM 41.0 °F - 37.0 °F 86% 30.15 in 10.0 mi Calm Calm - N/A   Clear
9:53 PM 39.0 °F - 36.0 °F 89% 30.15 in 10.0 mi Calm Calm - N/A   Clear
10:53 PM 37.9 °F - 36.0 °F 93% 30.15 in 10.0 mi Calm Calm - N/A   Clear
11:53 PM 36.0 °F - 35.1 °F 97% 30.14 in 10.0 mi Calm Calm - N/A   Clear